Dixon Entrance East: Past 24 Hour Conditions

 

Bella Bella Airport

05:00 PM PST 22 January 2019
Disclaimer

This table is a summary of hourly weather conditions for the past 24 hours.
Please note that these observations might not always be representative of weather conditions over their associated marine area.

Date / Time
(PST)
Wind(knots) Conditions Visibility(km) Pressure(kPa) Air tempC) Relative humidity(%) Dew pointC)
22 January 2019
17:00 WNW 3 Cloudy 16 101.4 7 86 5
16:00 calm Cloudy 16 101.4 9 75 5
15:00 SE 5 Cloudy 16 101.4 10 69 4
14:00 SSE 5 Mostly Cloudy 16 101.5 10 68 4
13:00 SSE 8 Cloudy 16 101.6 10 69 4
12:00 S 6 Cloudy 16 101.6 10 69 4
11:00 SSE 7 Cloudy 16 101.6 9 74 5
10:00 calm Cloudy 16 101.6 7 92 6
9:00 SW 3 Cloudy 16 101.6 8 77 4
8:00 SSE 7 gust 15 Light Rain 16 101.5 7 84 5
7:00 S 9 gust 15 Cloudy 16 101.5 8 72 4
6:00 S 7 Cloudy 16 101.5 8 72 3
5:00 SSE 10 gust 15 Cloudy 16 101.4 8 73 3
4:00 SSE 17 gust 30 Cloudy 16 101.4 7 73 3
3:00 S 17 gust 27 Cloudy 16 101.3 7 75 3
2:00 S 19 gust 28 Cloudy 16 101.4 6 77 3
1:00 SSE 16 gust 24 Cloudy 16 101.4 6 79 3
0:00 SSE 15 gust 27 Cloudy 16 101.4 6 80 3
21 January 2019
23:00 SSE 12 gust 18 Light Rain 16 101.5 4 90 3
22:00 SE 9 gust 15 Light Rain 13 101.4 3 94 2
21:00 SE 8 gust 16 Light Rain 15 101.5 3 92 2
20:00 SSE 14 gust 25 Light Rain 10 101.6 4 84 2
19:00 SE 11 gust 18 Cloudy 16 101.7 5 72 1
18:00 ESE 5 Cloudy 16 101.9 5 79 1
17:00 SE 9 Cloudy 16 102.0 5 78 1

Zoom-in to make a selection

Map of Pacific - North Coast marine weather areas Middle Nomad - 46004 South Nomad - 46036 Dixon Entrance Central - 46145 South Moresby - 46147 Nanakwa Shoal - 46181 North Hecate Strait - 46183 North Nomad - 46184 South Hecate Strait - 46185 West Sea Otter - 46204 West Dixon Entrance - 46205 East Dellwood - 46207 West Moresby - 46208 Sartine Island Cape St.James Kindakun Rocks Langara Island Masset Municipal Airport Rose Spit Sandspit Airport Bella Bella Airport Bella Coola Airport Bonilla Island Cathedral Point Cumshewa Island Grey Islet Holland Rock Lucy Islands Lightstation Prince Rupert Airport
Legend:
buoy Buoy
land station Land Station

Pacific - North Coast Area

Another Region

What we are doing

Date modified: